Flag for French Polynesia Weather past 2 weeks in Gambier Islands, French Polynesia

Now
67 °F

Mild.


Feels Like: 67 °F
Forecast: 68 / 72 °F
Wind: 5 mph from South

Location: Rikitea

Current Time: Aug 21, 2014 at 5:01:45 PM

Latest Report: Aug 21, 2014 at 4:00 PM


Visibility: N/A

Pressure: 30.01 "Hg

Humidity: 94%

Dew point: 65 °F

Location of Gambier IslandsLocation

Historic Weather in Gambier Islands — Graph

°F

Gambier Islands temperature yesterday

Maximum temperature yesterday: 76 °F (at 11:00 AM)
Minimum temperature yesterday: 71 °F (at 4:00 AM)
Average temperature yesterday: 72 °F

Past Weeks' High & Low Weather Summary

 TemperatureHumidityPressure
High77 °F (Aug 11, 12:00 PM)98% (Aug 14, 12:00 AM)30.26 "Hg (Aug 14, 12:00 AM)
Low63 °F (Aug 8, 4:00 AM)53% (Aug 7, 6:00 AM)29.92 "Hg (Aug 19, 3:00 PM)
Average69 °F76%30.10 "Hg
* Reported Aug 6 3:00 PM — Aug 21 3:00 PM, Gambier Islands, Weather by CustomWeather, © 2014

Note: Actual official high and low records may vary slightly from our data, if they occured in-between our weather recording intervals... More about our weather records

Advertising

Gambier Islands weather history for previous 24 hours

 ConditionsComfort  
Time TempWeatherWind HumidityBarometerVisibility
3:00 PM
Aug 21
68 °FLight rain. Low clouds.5 mph91%30.00 "Hg5 mi
2:00 PM68 °FLight rain. Low clouds.6 mph91%30.00 "Hg3 mi
1:00 PM70 °FMild.6 mph85%30.02 "HgN/A
12:00 PM70 °FOvercast.6 mph85%30.03 "Hg19 mi
11:00 AM69 °FOvercast.8 mph86%30.05 "Hg19 mi
10:00 AM69 °FMild.8 mph88%30.06 "HgN/A
9:00 AM68 °FOvercast.7 mph85%30.06 "Hg19 mi
8:00 AM68 °FPartly sunny.7 mph86%30.04 "Hg19 mi
7:00 AM67 °FPartly sunny.7 mph86%30.03 "Hg16 mi
6:00 AM67 °FPartly sunny.8 mph90%30.01 "Hg16 mi
5:00 AM67 °FMild.8 mph91%29.98 "HgN/A
4:00 AM66 °FMild.8 mph93%29.96 "HgN/A
3:00 AM67 °FMild.8 mph95%29.97 "HgN/A
2:00 AM66 °FMild.9 mph95%29.97 "HgN/A
1:00 AM68 °FMild.7 mph95%29.98 "HgN/A
12:00 AM71 °FMild.5 mph94%29.98 "HgN/A
11:00 PM
Aug 20
72 °FMild.3 mph93%29.99 "HgN/A
10:00 PM71 °FMild.5 mph92%30.00 "HgN/A
9:00 PM71 °FMild.8 mph93%29.99 "HgN/A
8:00 PM71 °FMild.9 mph92%29.99 "HgN/A
7:00 PM71 °FMild.9 mph91%29.98 "HgN/A
6:00 PM72 °FMild.9 mph89%29.98 "HgN/A
5:00 PM72 °FOvercast.6 mph88%29.97 "Hg19 mi
Weather by CustomWeather, © 2014

See weather overviewHow to use our weather pages